Weather History for Lincoln, CA

Change the Weather History Date:

Saturday, August 24, 2013

  Actual Average (KAUN) Record (KAUN)
Temperature  
Mean Temperature 76 °F -  
Max Temperature 91 °F 89 °F 102 °F (2010)
Min Temperature 60 °F 59 °F 49 °F (1949)
Cooling Degree Days 10    
Growing Degree Days 26 (Base 50)    
Moisture  
Dew Point 49 °F    
Average Humidity 43    
Maximum Humidity 68    
Minimum Humidity 17    
Precipitation  
Precipitation 0.00 in - - ()
Sea Level Pressure  
Sea Level Pressure 29.79 in    
Wind  
Wind Speed 10 mph (SSE)    
Max Wind Speed 15 mph    
Max Gust Speed 18 mph    
Visibility 10 miles    
Events      
Averages and records for this station are not official NWS values.
T = Trace of Precipitation, MM = Missing Value Source: NWS Daily Summary

Daily Weather History Graph

Daily Weather History Graph

Search for Another Location

Airport:

Trip Planner

Search our weather history database for the weather conditions in past years. The results will help you decide how hot, cold, wet, or windy it might be!

Date:

Astronomy

Aug. 24, 2013 Rise Set
Actual Time 6:27 AM PDT 7:47 PM PDT
Civil Twilight 5:59 AM PDT 8:14 PM PDT
Nautical Twilight 5:26 AM PDT 8:48 PM PDT
Astronomical Twilight 4:51 AM PDT 9:22 PM PDT
Moon 9:47 PM PDT (8/24) 10:29 AM PDT (8/24)
Length of Visible Light 14h 15m
Length of Day
13h 19m
Waning Gibbous, 83% of the Moon is Illuminated
Aug 24
Waning Gibbous
Aug 28
Last Quarter
Sep 5
New
Sep 12
First Quarter
Sep 19
Full

Hourly Weather History & Observations

Time (PDT) Temp. Dew Point Humidity Pressure Visibility Wind Dir Wind Speed Gust Speed Precip Events Conditions
12:15 AM 69.8 °F 50.0 °F 49% 29.76 in 10.0 mi SSE 11.5 mph - N/A   Clear
12:35 AM 69.8 °F 50.0 °F 49% 29.76 in 10.0 mi SSE 8.1 mph - N/A   Clear
12:55 AM 66.2 °F 50.0 °F 56% 29.77 in 10.0 mi SSE 6.9 mph - N/A   Clear
1:15 AM 66.2 °F 51.8 °F 60% 29.77 in 10.0 mi SSE 8.1 mph - N/A   Clear
1:35 AM 66.2 °F 51.8 °F 60% 29.77 in 10.0 mi SSE 8.1 mph - N/A   Clear
1:55 AM 64.4 °F 51.8 °F 64% 29.77 in 10.0 mi SSE 5.8 mph - N/A   Clear
2:15 AM 64.4 °F 51.8 °F 64% 29.77 in 10.0 mi SSE 6.9 mph - N/A   Clear
2:35 AM 64.4 °F 51.8 °F 64% 29.77 in 10.0 mi SE 4.6 mph - N/A   Clear
2:55 AM 64.4 °F 51.8 °F 64% 29.78 in 10.0 mi SSE 8.1 mph - N/A   Clear
3:15 AM 66.2 °F 50.0 °F 56% 29.77 in 10.0 mi SE 11.5 mph - N/A   Clear
3:35 AM 66.2 °F 50.0 °F 56% 29.77 in 10.0 mi SSE 11.5 mph - N/A   Clear
3:55 AM 64.4 °F 50.0 °F 59% 29.78 in 10.0 mi SSE 9.2 mph - N/A   Clear
4:15 AM 64.4 °F 50.0 °F 59% 29.78 in 10.0 mi SSE 6.9 mph - N/A   Clear
4:35 AM 62.6 °F 50.0 °F 63% 29.78 in 10.0 mi SSE 6.9 mph - N/A   Clear
4:55 AM 62.6 °F 50.0 °F 63% 29.78 in 10.0 mi SSE 6.9 mph - N/A   Clear
5:15 AM 60.8 °F 50.0 °F 68% 29.78 in 10.0 mi SSE 6.9 mph - N/A   Clear
5:35 AM 60.8 °F 50.0 °F 68% 29.78 in 10.0 mi South 5.8 mph - N/A   Clear
5:55 AM 60.8 °F 50.0 °F 68% 29.79 in 10.0 mi SSE 8.1 mph - N/A   Clear
6:15 AM 62.6 °F 50.0 °F 63% 29.79 in 10.0 mi SSE 9.2 mph - N/A   Clear
6:35 AM 60.8 °F 50.0 °F 68% 29.80 in 10.0 mi SSE 6.9 mph - N/A   Clear
6:55 AM 62.6 °F 50.0 °F 63% 29.80 in 10.0 mi SE 10.4 mph - N/A   Clear
7:15 AM 62.6 °F 50.0 °F 63% 29.80 in 10.0 mi SSE 10.4 mph - N/A   Clear
7:35 AM 64.4 °F 50.0 °F 59% 29.81 in 10.0 mi SE 10.4 mph - N/A   Clear
7:55 AM 64.4 °F 48.2 °F 56% 29.81 in 10.0 mi SE 10.4 mph - N/A   Clear
8:15 AM 68.0 °F 48.2 °F 49% 29.82 in 10.0 mi SSE 11.5 mph - N/A   Clear
8:35 AM 68.0 °F 48.2 °F 49% 29.82 in 10.0 mi SE 15.0 mph - N/A   Clear
8:55 AM 69.8 °F 48.2 °F 46% 29.82 in 10.0 mi SE 12.7 mph - N/A   Clear
9:15 AM 69.8 °F 48.2 °F 46% 29.82 in 10.0 mi SSE 12.7 mph - N/A   Clear
9:35 AM 71.6 °F 46.4 °F 41% 29.83 in 10.0 mi SSE 13.8 mph 18.4 mph N/A   Clear
9:55 AM 73.4 °F 46.4 °F 38% 29.83 in 10.0 mi SE 12.7 mph 18.4 mph N/A   Clear
10:15 AM 73.4 °F 46.4 °F 38% 29.83 in 10.0 mi SSE 13.8 mph - N/A   Clear
10:35 AM 77.0 °F 46.4 °F 34% 29.83 in 10.0 mi SSE 11.5 mph - N/A   Clear
10:55 AM 78.8 °F 46.4 °F 32% 29.83 in 10.0 mi SSE 12.7 mph - N/A   Clear
11:15 AM 78.8 °F 46.4 °F 32% 29.83 in 10.0 mi South 12.7 mph - N/A   Clear
11:35 AM 80.6 °F 44.6 °F 28% 29.83 in 10.0 mi SSE 15.0 mph - N/A   Clear
11:55 AM 80.6 °F 44.6 °F 28% 29.83 in 10.0 mi SSE 12.7 mph - N/A   Clear
12:15 PM 82.4 °F 46.4 °F 28% 29.83 in 10.0 mi South 11.5 mph 16.1 mph N/A   Clear
12:35 PM 82.4 °F 46.4 °F 28% 29.82 in 10.0 mi SSW 12.7 mph - N/A   Clear
12:55 PM 82.4 °F 46.4 °F 28% 29.82 in 10.0 mi South 10.4 mph 17.3 mph N/A   Clear
1:15 PM 82.4 °F 46.4 °F 28% 29.82 in 10.0 mi SSW 10.4 mph 16.1 mph N/A   Clear
1:35 PM 84.2 °F 46.4 °F 27% 29.81 in 10.0 mi South 9.2 mph - N/A   Clear
1:55 PM 86.0 °F 46.4 °F 25% 29.81 in 10.0 mi SE 6.9 mph - N/A   Clear
2:15 PM 87.8 °F 46.4 °F 24% 29.80 in 10.0 mi South 11.5 mph 16.1 mph N/A   Clear
2:35 PM 87.8 °F 44.6 °F 22% 29.80 in 10.0 mi South 6.9 mph - N/A   Clear
2:55 PM 87.8 °F 44.6 °F 22% 29.80 in 10.0 mi South 10.4 mph - N/A   Clear
3:15 PM 89.6 °F 42.8 °F 20% 29.79 in 10.0 mi South 9.2 mph - N/A   Clear
3:35 PM 89.6 °F 42.8 °F 20% 29.78 in 10.0 mi South 8.1 mph - N/A   Clear
3:55 PM 89.6 °F 42.8 °F 20% 29.77 in 10.0 mi South 9.2 mph - N/A   Clear
4:15 PM 89.6 °F 41.0 °F 18% 29.77 in 10.0 mi South 6.9 mph - N/A   Clear
4:35 PM 89.6 °F 42.8 °F 20% 29.76 in 10.0 mi SW 6.9 mph - N/A   Clear
4:55 PM 89.6 °F 42.8 °F 20% 29.76 in 10.0 mi SSW 9.2 mph - N/A   Clear
5:15 PM 91.4 °F 41.0 °F 17% 29.76 in 10.0 mi SSW 8.1 mph - N/A   Clear
5:35 PM 89.6 °F 44.6 °F 21% 29.76 in 10.0 mi SSW 10.4 mph - N/A   Clear
5:55 PM 89.6 °F 46.4 °F 22% 29.75 in 10.0 mi SSW 13.8 mph - N/A   Clear
6:15 PM 89.6 °F 48.2 °F 24% 29.75 in 10.0 mi SSW 11.5 mph - N/A   Clear
6:35 PM 86.0 °F 50.0 °F 29% 29.75 in 10.0 mi SSW 11.5 mph - N/A   Clear
6:55 PM 86.0 °F 50.0 °F 29% 29.76 in 10.0 mi South 11.5 mph - N/A   Clear
7:15 PM 82.4 °F 50.0 °F 32% 29.76 in 10.0 mi South 10.4 mph - N/A   Clear
7:35 PM 80.6 °F 51.8 °F 37% 29.77 in 10.0 mi South 9.2 mph - N/A   Clear
7:55 PM 78.8 °F 51.8 °F 39% 29.78 in 10.0 mi South 10.4 mph - N/A   Clear
8:15 PM 77.0 °F 51.8 °F 41% 29.78 in 10.0 mi SSE 8.1 mph - N/A   Clear
8:35 PM 77.0 °F 53.6 °F 44% 29.78 in 10.0 mi SSE 12.7 mph - N/A   Clear
8:55 PM 75.2 °F 53.6 °F 47% 29.79 in 10.0 mi SSE 13.8 mph 17.3 mph N/A   Clear
9:15 PM 73.4 °F 53.6 °F 50% 29.80 in 10.0 mi SSE 10.4 mph - N/A   Clear
9:35 PM 73.4 °F 53.6 °F 50% 29.81 in 10.0 mi SSE 11.5 mph - N/A   Clear
9:55 PM 73.4 °F 53.6 °F 50% 29.81 in 10.0 mi SSE 12.7 mph - N/A   Clear
10:15 PM 71.6 °F 53.6 °F 53% 29.82 in 10.0 mi SE 11.5 mph 18.4 mph N/A   Clear
10:35 PM 71.6 °F 53.6 °F 53% 29.82 in 10.0 mi SSE 11.5 mph - N/A   Clear
10:55 PM 71.6 °F 53.6 °F 53% 29.82 in 10.0 mi SSE 13.8 mph - N/A   Clear
11:15 PM 69.8 °F 53.6 °F 56% 29.83 in 10.0 mi SSE 10.4 mph - N/A   Clear
11:35 PM 69.8 °F 53.6 °F 56% 29.82 in 10.0 mi SSE 10.4 mph - N/A   Clear
11:55 PM 69.8 °F 53.6 °F 56% 29.83 in 10.0 mi SSE 10.4 mph - N/A   Clear